Time,TemperatureF,DewpointF,PressureIn,WindDirection,WindDirectionDegrees,WindSpeedMPH,WindSpeedGustMPH,Humidity,HourlyPrecipIn,Conditions,Clouds,dailyrainin,SoftwareType,DateUTC
2013-04-21 12:00:00,80.0,-99.9,-100.00,SE,130,6.0,-999.0,-999,-99.99,,,-99.99,,2013-04-21 16:00:00,
2013-04-21 12:23:00,80.0,-99.9,-100.00,SE,130,6.0,-999.0,-999,-99.99,,,-99.99,,2013-04-21 16:23:00,
2013-04-21 12:33:00,80.0,-99.9,-100.00,SE,130,6.0,-999.0,-999,-99.99,,,-99.99,,2013-04-21 16:33:00,
2013-04-21 12:42:00,80.0,-99.9,-100.00,SE,130,6.0,-999.0,-999,-99.99,,,-99.99,,2013-04-21 16:42:00,
2013-04-21 12:53:00,80.0,-99.9,-100.00,SE,130,6.0,-999.0,-999,-99.99,,,-99.99,,2013-04-21 16:53:00,
2013-04-21 13:00:00,80.0,-99.9,30.07,East,100,9.0,9.0,-999,-99.99,,,-99.99,,2013-04-21 17:00:00,
2013-04-21 13:23:00,80.0,-99.9,30.07,East,100,9.0,9.0,-999,-99.99,,,-99.99,,2013-04-21 17:23:00,
2013-04-21 13:32:00,80.0,-99.9,30.07,East,100,9.0,9.0,-999,-99.99,,,-99.99,,2013-04-21 17:32:00,
2013-04-21 13:42:00,80.0,-99.9,30.07,East,100,9.0,9.0,-999,-99.99,,,-99.99,,2013-04-21 17:42:00,
2013-04-21 13:52:00,80.0,-99.9,30.07,East,100,9.0,9.0,-999,-99.99,,,-99.99,,2013-04-21 17:52:00,
2013-04-21 14:00:00,80.0,-99.9,30.05,East,90,11.0,13.0,-999,-99.99,,,-99.99,,2013-04-21 18:00:00,
2013-04-21 14:22:00,80.0,-99.9,30.05,East,90,11.0,13.0,-999,-99.99,,,-99.99,,2013-04-21 18:22:00,
2013-04-21 14:33:00,80.0,-99.9,30.05,East,90,11.0,13.0,-999,-99.99,,,-99.99,,2013-04-21 18:33:00,
2013-04-21 14:42:00,80.0,-99.9,30.05,East,90,11.0,13.0,-999,-99.99,,,-99.99,,2013-04-21 18:42:00,
2013-04-21 14:52:00,80.0,-99.9,30.05,East,90,11.0,13.0,-999,-99.99,,,-99.99,,2013-04-21 18:52:00,
2013-04-21 15:00:00,81.0,-99.9,30.03,East,90,10.0,11.0,-999,-99.99,,,-99.99,,2013-04-21 19:00:00,
2013-04-21 15:22:00,81.0,-99.9,30.03,East,90,10.0,11.0,-999,-99.99,,,-99.99,,2013-04-21 19:22:00,
2013-04-21 15:32:00,81.0,-99.9,30.03,East,90,10.0,11.0,-999,-99.99,,,-99.99,,2013-04-21 19:32:00,
2013-04-21 15:43:00,81.0,-99.9,30.03,East,90,10.0,11.0,-999,-99.99,,,-99.99,,2013-04-21 19:43:00,
2013-04-21 15:52:00,81.0,-99.9,30.03,East,90,10.0,11.0,-999,-99.99,,,-99.99,,2013-04-21 19:52:00,
2013-04-21 16:00:00,80.0,-99.9,30.00,East,80,11.0,11.0,-999,-99.99,,,-99.99,,2013-04-21 20:00:00,
2013-04-21 16:22:00,80.0,-99.9,30.00,East,80,11.0,11.0,-999,-99.99,,,-99.99,,2013-04-21 20:22:00,
2013-04-21 16:32:00,80.0,-99.9,30.00,East,80,11.0,11.0,-999,-99.99,,,-99.99,,2013-04-21 20:32:00,
2013-04-21 16:42:00,80.0,-99.9,30.00,East,80,11.0,11.0,-999,-99.99,,,-99.99,,2013-04-21 20:42:00,
2013-04-21 16:52:00,80.0,-99.9,30.00,East,80,11.0,11.0,-999,-99.99,,,-99.99,,2013-04-21 20:52:00,
2013-04-21 17:00:00,-999.0,-99.9,-100.00,East,80,11.0,-999.0,-999,-99.99,,,-99.99,,2013-04-21 21:00:00,
2013-04-21 17:22:00,-999.0,-99.9,-100.00,East,80,11.0,-999.0,-999,-99.99,,,-99.99,,2013-04-21 21:22:00,
2013-04-21 17:33:00,-999.0,-99.9,-100.00,East,80,11.0,-999.0,-999,-99.99,,,-99.99,,2013-04-21 21:33:00,
2013-04-21 17:43:00,-999.0,-99.9,-100.00,East,80,11.0,-999.0,-999,-99.99,,,-99.99,,2013-04-21 21:43:00,
2013-04-21 17:53:00,-999.0,-99.9,-100.00,East,80,11.0,-999.0,-999,-99.99,,,-99.99,,2013-04-21 21:53:00,
2013-04-21 18:00:00,80.0,-99.9,29.99,ENE,70,14.0,15.0,-999,-99.99,,,-99.99,,2013-04-21 22:00:00,
2013-04-21 18:22:00,80.0,-99.9,29.99,ENE,70,14.0,15.0,-999,-99.99,,,-99.99,,2013-04-21 22:22:00,
2013-04-21 18:33:00,80.0,-99.9,29.99,ENE,70,14.0,15.0,-999,-99.99,,,-99.99,,2013-04-21 22:33:00,
2013-04-21 18:43:00,80.0,-99.9,29.99,ENE,70,14.0,15.0,-999,-99.99,,,-99.99,,2013-04-21 22:43:00,
2013-04-21 18:53:00,80.0,-99.9,29.99,ENE,70,14.0,15.0,-999,-99.99,,,-99.99,,2013-04-21 22:53:00,